Regional Weather Roundup
Issued by NWS Jackson, KY

Home | Current Version | Previous Version | Graphics & Text | Print | Product List | Glossary On
Versions: 1 2 3 4 5 6 7 8 9 10 11 12 13 14 15 16 17 18 19 20 21 22 23 24 25 26 27 28 29 30 31 32 33 34 35 36 37 38 39 40 41 42 43 44 45 46 47 48 49 50
000
ASUS43 KJKL 051810
RWRJKL

EAST KENTUCKY HOURLY WEATHER ROUNDUP
NATIONAL WEATHER SERVICE JACKSON KY
100 PM EST THU MAR 05 2015

NOTE: "FAIR" INDICATES FEW OR NO CLOUDS BELOW 12,000 FEET WITH
NO SIGNIFICANT WEATHER AND/OR OBSTRUCTIONS TO VISIBILITY.

* THESE REPORTS ARE NOT UNDER NWS QUALITY CONTROL AND MAY NOT
  REPORT WEATHER SUCH AS PRECIPITATION AND FOG.

KYZ079-080-083-085-087-088-110-112-115-119-120-051900
...EASTERN KENTUCKY...

CITY           SKY/WX    TMP DP  RH WIND       PRES   REMARKS
JACKSON        SNOW      20  16  84 NE6       30.25R VSB 1/2 WCI  12
6HR MIN TEMP:  20; 6HR MAX TEMP:  22; 6HR PCP:  0.33;

LONDON         LGT SNOW  22  15  75 N14       30.27R WCI   9
6HR MIN TEMP:  22; 6HR MAX TEMP:  24; 6HR PCP:  0.12;

SOMERSET*      LGT SNOW  21  16  79 N7        30.33S WCI  13
MONTICELLO*    LGT SNOW  21  18  86 CALM      30.35R FOG
6HR MIN TEMP:  22; 6HR MAX TEMP:  23; 6HR PCP: TRACE;

MIDDLESBORO*   CLOUDY    28  22  79 N10       30.22R WCI  18
6HR MIN TEMP:  27; 6HR MAX TEMP:  33; 6HR PCP:  0.10;

BLACK MTN*       N/A     18  18 100 VRB5        N/A  WCI  11
PIKEVILLE APT* LGT SNOW  19  18  93 N6        30.21F WCI  11
BIG SANDY*     LGT SNOW  22  19  86 N6        30.24F WCI  15
6HR MIN TEMP:  21; 6HR MAX TEMP:  23;

MOREHEAD APT*  FLURRIES  19  14  79 N8        30.33F WCI   9
$$

KYZ035-036-041-042-044-050-067-078-099-051900
...CENTRAL KENTUCKY...

CITY           SKY/WX    TMP DP  RH WIND       PRES   REMARKS
MT STERLING*   CLOUDY    19  14  79 NE8       30.35R WCI   9
FLEMING/MASON* CLOUDY    18  12  79 N7        30.35F WCI   8
DANVILLE*      CLOUDY    19  14  79 N12       30.35R WCI   7
RICHMOND*      CLOUDY    18  14  86 N7        30.32R WCI   8
LEXINGTON      FLURRIES  18  12  77 N10       30.35R WCI   6
6HR MIN TEMP:  16; 6HR MAX TEMP:  19; 6HR PCP:  0.01;

FRANKFORT      CLOUDY    21  12  68 N8        30.38R WCI  11
6HR MIN TEMP:  17; 6HR MAX TEMP:  21; 6HR PCP:  0.07;

$$

KYZ091>093-OHZ055-061-077-WVZ005-015-034-035-042-051900
...SOUTHERN OHIO/WEST VIRGINIA...

CITY           SKY/WX    TMP DP  RH WIND       PRES   REMARKS
COVINGTON      CLOUDY    21   7  54 N12       30.36S WCI   9
COLUMBUS       CLOUDY    20   6  55 N10       30.34R WCI   9
DAYTON         PTSUNNY   20   6  55 NW15      30.37R WCI   6
WILMINGTON     CLOUDY    19   4  51 N10       30.33S WCI   7
HUNTINGTON     LGT SNOW  20  17  88 N9        30.29S VSB 3/4 WCI   9
CHARLESTON     LGT SNOW  22  18  85 NW8       30.25F VSB 1   WCI  12
PINEVILLE*     LGT SNOW  28  26  93 MISG      30.20S VSB 1
BECKLEY        LGT SNOW  22  18  85 N7        30.08F VSB 1   WCI  13
BLUEFIELD      MIX PCPN  26  20  77 NW7       30.07S WCI  18
$$

VAZ002-007-008-TNZ017-027-036-066-071-051900
...SOUTHWEST VIRGINIA/EAST TENNESSEE...

CITY           SKY/WX    TMP DP  RH WIND       PRES   REMARKS
WISE*          CLOUDY    23  21  93 N9        30.08F WCI  13
JONESVILLE*    CLOUDY    28  25  86 N7        30.16F WCI  21
ABINGDON*      MIX PCPN  32  30  93 N5        30.04F WCI  27
BRISTOL        LGT RAIN  33  31  92 N8        30.08F WCI  26
KNOXVILLE      CLOUDY    31  28  89 N14       30.14R WCI  21
OAK RIDGE      CLOUDY    32  28  85 NE9       30.16R WCI  24
CROSSVILLE     CLOUDY    24  21  88 N14G22    30.21R FOG     WCI  12
NASHVILLE      CLOUDY    23  18  81 NW12      30.42R WCI  12
$$

...KEY TO REMARKS...
VSB - VISIBILITY IN MILES
WCI - WIND CHILL INDEX
HX  - HEAT INDEX

$$



USA.gov is the U.S. government's official web portal to all federal, state and local government web resources and services.